Temperature
12 12 12 12 13 13 13 13 13 13 13 13 13 13 13 13 13 13 13 13 13 13 13 12 12 12 12 12 11 11 11 11 11 10 10 10 10 10 10 9 9 9 9
12 12 12 12 12 12 12 12 12 12 12 12 12 12 13 13 13 13 13 13 13 13 12 12 12 12 12 12 11 11 11 11 10 10 10 10 10 10 9 9 9 9 9
11 11 11 11 11 11 11 12 12 12 12 12 12 12 12 12 13 13 12 12 12 12 12 12 12 12 12 12 11 11 11 10 10 10 10 10 10 10 9 9 9 9 8
10 10 11 11 11 11 11 11 11 11 11 12 12 12 12 12 12 12 12 12 12 12 12 12 12 12 12 11 11 11 11 10 10 10 10 10 10 9 9 9 9 9 8
10 10 10 10 10 10 10 10 10 10 11 11 11 11 11 12 12 12 12 12 12 12 12 12 11 12 11 11 11 11 11 10 10 10 10 10 10 9 9 9 9 8 8
9 9 9 9 9 9 9 9 10 10 10 10 10 11 11 11 11 11 11 11 12 11 11 11 11 11 11 11 11 11 11 10 10 10 10 10 9 9 9 9 8 8 8
9 8 8 8 8 8 9 9 9 9 9 9 9 10 10 10 11 11 11 11 11 11 11 11 11 11 11 11 11 11 11 10 10 10 9 9 9 9 9 9 8 8 8
8 8 8 8 8 8 8 8 8 8 9 9 9 9 9 9 10 10 10 10 11 11 11 11 11 11 11 11 11 11 10 10 10 10 9 9 9 9 9 8 8 8 7
8 8 7 7 7 7 7 8 7 8 8 8 8 8 8 9 9 9 10 10 10 10 10 10 10 10 10 10 11 10 10 10 10 10 9 9 9 8 8 8 8 8 7
7 7 7 7 7 7 7 7 7 7 7 8 8 8 8 8 8 9 9 9 10 10 10 10 10 10 10 10 10 10 10 10 10 9 9 9 9 8 8 8 8 7 7
7 7 7 7 6 6 6 7 7 7 7 7 7 7 8 8 8 8 8 9 9 9 9 9 10 10 10 10 10 10 10 10 10 9 9 9 9 8 8 8 7 7 7
6 6 6 6 6 6 6 6 6 6 7 7 7 7 7 7 8 8 8 8 8 9 9 9 9 9 9 9 9 9 9 9 9 9 9 9 9 8 8 8 7 7 6
6 6 6 6 6 6 6 6 6 6 6 6 7 7 7 7 7 8 8 8 8 8 8 8 9 9 9 9 9 9 9 9 9 9 9 9 8 8 8 8 7 7 6
6 6 6 5 5 5 5 5 5 5 6 6 6 7 7 7 7 7 8 8 7 7 8 8 8 8 9 8 8 8 9 9 9 9 8 8 8 8 8 7 7 7 6
5 5 5 5 5 5 5 5 5 5 5 6 6 6 6 7 7 7 7 7 7 7 7 7 8 8 8 8 8 8 8 8 8 8 8 8 8 8 7 7 7 6 6
5 5 5 5 5 5 4 4 5 5 5 5 6 6 6 6 7 7 7 7 7 7 7 7 7 8 8 8 8 8 8 8 8 8 8 8 7 7 7 6 6 6 5
4 4 4 4 4 4 4 4 4 5 5 5 5 6 6 6 6 6 7 7 7 7 7 7 7 7 7 7 7 7 7 7 7 7 7 7 7 7 6 6 6 5 5
4 4 4 4 4 4 4 4 4 4 4 5 5 5 6 6 6 6 6 6 7 7 7 7 6 7 7 7 7 7 7 7 7 7 7 7 6 6 6 5 5 5 4
4 4 3 3 3 3 3 4 4 4 4 5 5 5 5 5 5 6 6 6 6 7 7 7 6 6 6 6 6 6 6 6 6 6 6 6 6 6 5 5 5 4 4
3 3 3 3 3 3 3 3 4 4 4 4 5 5 5 5 5 5 5 6 6 6 6 6 6 6 6 6 6 6 6 6 6 6 6 6 5 5 5 5 4 4 3
3 3 3 3 3 3 3 3 3 4 4 4 4 5 5 5 5 5 5 6 6 6 6 6 5 5 5 5 6 6 6 6 5 5 5 5 5 5 5 4 4 3 3
2 2 2 2 2 3 3 3 3 4 4 4 4 5 5 5 5 5 5 6 6 6 6 6 5 5 6 6 6 5 5 5 5 5 5 5 5 4 4 4 3 3 3
2 2 2 2 2 3 3 3 3 4 4 4 4 4 4 5 5 5 5 5 6 6 6 6 6 6 6 6 6 6 5 5 5 5 5 4 4 4 4 3 3 2 2
1 1 1 1 2 2 3 3 3 4 4 4 4 4 4 4 4 5 5 5 5 5 6 6 6 6 6 6 6 6 5 5 5 4 4 4 4 3 3 2 2 2 1
1 1 1 1 2 2 3 3 3 3 3 4 4 4 4 4 4 4 4 5 5 5 5 5 5 5 5 5 5 5 5 5 4 4 4 4 3 3 2 2 2 1 1
1 1 1 1 1 2 2 3 3 3 3 4 4 4 4 4 4 4 4 4 4 5 5 5 5 5 5 5 5 5 5 5 4 4 3 3 3 3 2 1 1 1 0
Wind_Speed
1 2 2 2 2 2 3 3 4 5 6 7 8 8 8 8 7 8 9 16 17 17 18 18 17 16 16 15 14 14 13 12 11 10 9 8 6 5 4 3 3 4 4
1 2 3 2 2 3 3 3 4 4 5 5 7 7 7 8 8 8 9 13 17 17 18 19 18 18 17 16 16 14 13 13 12 11 10 9 7 6 5 5 5 5 5
2 2 3 3 2 3 3 3 4 3 4 5 6 7 6 7 7 8 9 11 13 16 17 18 19 19 19 18 17 15 14 14 13 12 11 10 8 7 6 6 6 6 6
3 2 2 3 3 2 2 3 3 3 4 4 5 5 5 5 6 7 8 10 11 12 15 18 19 20 20 19 18 16 15 14 13 13 12 11 10 9 8 7 6 6 6
4 2 3 3 3 3 3 4 4 3 4 4 5 5 5 5 6 6 8 9 11 11 12 15 18 19 20 19 19 18 17 16 15 13 12 11 10 10 9 8 7 7 7
4 2 3 3 3 3 3 4 4 4 4 4 5 5 4 5 5 6 7 8 9 12 13 13 14 15 18 19 19 18 18 17 16 14 12 12 11 10 10 9 8 7 7
5 3 3 3 3 4 5 5 4 5 4 3 2 3 4 5 6 5 5 6 8 9 11 12 12 12 13 17 19 18 18 17 17 15 14 13 12 11 10 9 8 7 7
5 4 4 4 4 4 5 5 4 4 4 3 2 2 3 3 5 6 6 7 7 7 8 10 11 11 11 11 14 18 18 17 17 16 14 14 13 12 11 10 8 7 7
5 5 5 5 5 5 5 6 5 6 5 5 4 3 3 4 2 4 6 7 7 7 7 8 10 11 12 11 13 16 17 17 17 16 15 14 13 12 11 10 9 8 7
6 6 6 5 5 5 6 7 6 5 6 6 5 5 4 3 3 2 3 5 7 8 8 8 8 10 11 11 13 15 17 17 18 16 15 14 13 13 11 10 9 8 6
6 7 6 6 6 6 6 7 7 7 6 6 5 5 5 4 4 3 4 5 5 6 8 8 8 8 10 11 12 15 18 17 17 16 15 14 13 13 12 10 8 7 6
5 7 6 6 6 6 7 7 8 8 8 7 7 6 5 5 5 4 5 6 6 5 6 7 8 8 10 11 13 17 18 17 16 15 14 13 13 12 11 9 8 7 6
5 6 7 6 6 7 8 8 8 9 9 9 9 7 7 7 5 4 5 5 4 3 3 5 6 7 9 10 11 16 16 16 16 15 13 12 11 11 10 8 7 6 6
6 7 7 8 8 9 9 9 8 10 9 10 11 9 7 7 6 5 5 4 4 3 3 4 4 6 7 9 11 15 13 16 15 14 13 12 11 10 9 8 7 6 5
6 7 8 9 9 9 10 9 9 10 10 10 10 10 8 7 7 6 6 6 6 5 5 4 3 5 6 7 11 12 11 14 15 14 13 12 12 11 10 8 7 6 4
8 8 9 9 9 10 10 10 10 10 11 10 9 10 9 7 7 7 7 6 6 5 5 3 3 4 5 5 10 11 11 14 15 14 13 12 11 11 10 9 7 6 5
8 8 9 9 10 10 11 10 11 11 12 11 10 11 10 8 7 7 6 7 6 5 5 3 2 4 5 5 5 7 9 9 10 14 13 12 11 11 10 9 8 6 5
8 8 8 9 10 11 11 11 12 11 12 11 10 10 10 8 8 7 7 7 7 6 5 5 3 3 4 6 6 6 6 7 7 12 13 12 11 11 10 9 8 7 5
9 8 9 10 11 12 12 11 12 12 12 12 11 10 10 9 9 7 8 7 6 5 5 6 4 3 3 4 5 4 5 4 6 9 11 11 11 11 10 9 8 6 5
9 9 9 10 11 11 11 11 11 11 11 11 10 10 10 10 10 9 8 8 6 6 6 6 5 4 3 3 4 5 4 3 4 5 7 8 9 10 10 9 8 7 5
10 9 9 11 11 11 11 11 10 11 10 10 9 9 9 10 11 10 8 8 8 7 6 6 5 4 4 5 5 4 4 4 3 3 4 4 5 4 5 7 7 7 5
9 9 10 11 11 11 14 16 12 10 10 10 10 9 9 9 11 11 11 10 10 10 9 7 5 8 7 6 5 6 5 5 3 4 4 3 4 4 3 5 7 7 5
9 10 11 11 12 12 16 15 14 10 10 9 9 9 8 8 9 8 8 7 7 10 10 9 9 9 9 9 8 7 6 5 3 4 4 3 3 3 3 5 8 7 5
9 10 10 10 11 12 13 13 13 10 9 9 9 10 9 9 9 8 7 5 4 5 6 6 7 7 7 8 8 7 6 5 4 3 3 3 3 2 2 3 6 6 5
10 10 9 10 10 10 10 11 10 7 7 8 9 9 9 9 9 9 8 6 4 2 2 5 6 6 8 8 8 7 7 6 3 2 1 3 3 2 2 1 3 5 4
9 9 10 9 9 8 9 10 9 6 7 6 6 7 9 9 10 10 8 8 7 5 4 4 5 5 5 7 8 7 8 7 4 3 2 3 3 3 2 0 1 2 2
Wind_Direction
301 288 275 248 243 238 220 229 231 223 217 212 208 209 211 213 201 188 180 185 188 197 203 203 202 199 196 193 192 191 191 192 193 195 197 202 206 211 224 237 259 282 299
288 291 285 268 258 238 224 233 241 237 229 223 218 214 213 212 204 187 180 189 191 196 205 207 205 203 200 197 195 195 197 198 198 201 204 208 210 214 225 240 258 273 287
308 293 287 278 262 256 253 255 255 246 244 237 230 225 217 214 208 195 184 187 192 199 205 210 210 207 204 201 199 198 200 202 205 207 209 212 215 218 226 240 254 266 281
302 295 286 280 275 261 254 263 262 257 247 240 237 234 228 217 214 204 191 188 190 197 205 213 214 210 207 205 203 202 203 205 208 211 214 216 218 222 228 239 248 261 275
287 275 271 273 277 271 260 261 265 260 254 246 242 236 229 221 218 211 201 193 193 195 198 209 214 213 210 210 207 206 207 210 212 214 216 218 222 226 230 237 246 259 273
277 268 260 261 270 268 264 255 257 261 256 246 253 247 234 231 224 220 210 200 195 195 198 203 206 211 210 211 211 209 210 212 214 217 219 221 225 227 231 238 247 258 271
276 255 262 254 256 258 257 257 259 257 258 247 255 260 254 237 224 223 221 208 201 197 195 198 200 200 203 208 210 210 211 214 217 219 222 223 224 227 232 237 245 253 266
265 261 254 253 250 255 259 258 256 256 256 227 222 234 250 246 230 223 217 214 207 198 199 198 194 195 197 198 203 205 211 216 220 221 221 223 224 226 231 235 237 246 260
252 251 250 250 246 245 252 254 248 245 248 236 215 212 220 229 246 228 220 217 210 208 205 199 197 193 194 194 197 202 206 213 218 221 222 224 225 228 229 231 234 244 256
244 247 247 247 245 245 248 253 253 250 242 237 233 236 238 243 224 237 233 222 217 213 207 206 203 197 194 192 193 196 202 210 217 221 222 222 225 226 226 227 233 241 252
239 239 240 242 245 247 246 248 251 248 245 240 235 237 241 243 241 233 236 223 222 218 211 207 204 199 194 194 192 194 198 205 213 219 221 223 226 227 225 227 231 239 249
245 240 239 240 246 250 248 247 246 244 246 247 240 235 227 222 223 226 229 220 221 224 214 209 204 200 195 194 196 194 197 201 208 213 214 217 223 226 225 225 228 235 247
256 245 248 242 246 250 249 246 246 243 241 243 240 236 232 230 223 227 222 226 236 248 229 219 209 196 195 191 196 192 195 199 202 204 204 205 210 214 218 221 221 231 246
251 245 244 244 249 254 253 246 247 245 242 239 241 235 234 231 224 223 218 213 224 248 240 225 207 196 190 189 193 188 193 195 197 198 198 199 199 204 204 206 212 225 238
255 247 245 247 251 256 252 246 245 243 240 237 237 233 233 232 224 221 216 207 208 229 238 224 210 197 186 183 185 185 186 192 193 194 195 194 194 195 193 194 201 212 214
256 253 252 251 253 257 253 247 244 240 241 238 236 229 228 231 224 217 214 216 210 214 236 226 225 194 179 182 184 181 185 189 193 193 190 191 191 190 188 187 193 197 203
257 257 255 256 256 259 256 249 243 241 241 240 238 229 225 224 223 220 214 214 212 203 223 241 215 179 180 177 180 181 177 180 188 189 190 190 189 188 185 185 187 191 201
261 261 260 261 261 263 256 249 246 242 240 238 234 228 225 225 223 220 215 215 214 204 199 208 208 187 190 178 177 176 170 174 180 186 187 188 186 186 186 184 186 189 196
268 266 265 265 265 264 255 248 242 240 239 236 232 228 222 220 225 220 217 214 211 201 188 187 201 191 189 170 163 162 156 166 172 179 180 184 184 186 187 185 186 186 189
269 269 270 268 267 265 257 250 242 239 239 236 233 227 221 217 220 215 214 211 200 187 178 179 182 181 184 172 166 167 165 175 173 167 172 176 180 185 187 184 183 182 184
272 271 272 270 268 264 258 248 241 238 235 233 232 228 226 221 218 217 216 204 191 184 180 182 183 186 190 183 194 180 172 167 163 159 155 170 168 177 185 184 182 178 180
273 273 271 271 271 268 261 253 245 236 230 226 227 228 225 221 217 220 218 212 197 188 187 190 197 197 203 199 188 172 163 168 184 170 160 176 161 167 177 178 177 175 180
276 279 277 276 274 270 263 255 244 231 225 223 222 222 227 224 212 200 198 194 194 192 194 194 195 202 199 195 180 177 183 176 181 164 149 165 154 164 169 172 170 172 177
281 281 281 281 279 270 264 257 243 226 219 219 217 216 215 208 204 189 181 179 187 194 196 195 192 198 198 185 181 180 167 130 99 117 139 154 153 158 143 159 167 170 179
290 285 284 283 279 271 264 258 243 214 216 222 218 213 205 198 194 181 171 168 169 171 139 158 164 171 170 168 162 151 153 145 144 158 141 140 142 121 113 138 164 172 182
290 292 288 284 276 270 264 254 239 214 212 214 205 198 197 193 183 176 171 168 172 171 153 138 129 132 143 150 160 174 169 160 150 165 174 139 138 124 116 83 131 171 190
Height
1476 1477 1477 1477 1478 1478 1478 1479 1480 1481 1482 1482 1484 1485 1487 1488 1490 1491 1492 1494 1495 1497 1499 1501 1502 1503 1504 1505 1507 1508 1508 1509 1510 1511 1511 1511 1512 1512 1512 1511 1511 1510 1509
1473 1473 1474 1474 1474 1474 1474 1475 1476 1477 1478 1479 1479 1481 1482 1484 1485 1487 1488 1489 1491 1493 1495 1497 1498 1499 1500 1502 1503 1504 1505 1507 1507 1508 1508 1509 1509 1509 1509 1509 1508 1508 1507
1469 1469 1470 1470 1470 1471 1471 1471 1472 1473 1474 1475 1475 1476 1477 1479 1481 1482 1483 1484 1486 1488 1490 1492 1494 1495 1496 1498 1499 1501 1502 1503 1504 1505 1505 1506 1506 1506 1506 1506 1506 1505 1504
1466 1466 1466 1466 1467 1467 1467 1467 1468 1469 1469 1470 1471 1471 1472 1474 1475 1476 1478 1479 1481 1483 1485 1487 1489 1491 1492 1494 1495 1497 1498 1500 1501 1502 1502 1503 1503 1503 1503 1503 1502 1502 1501
1462 1462 1462 1462 1463 1463 1463 1463 1464 1465 1465 1465 1466 1467 1467 1468 1469 1471 1472 1474 1475 1477 1480 1482 1484 1486 1487 1489 1491 1492 1494 1496 1497 1498 1499 1499 1500 1500 1500 1500 1499 1499 1498
1459 1458 1457 1458 1458 1458 1459 1459 1459 1460 1460 1461 1461 1461 1462 1462 1464 1465 1467 1468 1470 1472 1474 1477 1479 1480 1482 1484 1486 1488 1489 1491 1493 1494 1495 1495 1496 1496 1496 1496 1496 1495 1494
1455 1454 1453 1453 1453 1453 1454 1454 1454 1455 1455 1457 1457 1456 1456 1457 1457 1459 1462 1463 1464 1466 1468 1471 1473 1475 1477 1479 1481 1483 1485 1487 1488 1489 1490 1491 1492 1492 1492 1492 1492 1491 1490
1451 1450 1449 1448 1448 1449 1449 1449 1450 1450 1450 1452 1452 1452 1451 1452 1451 1453 1455 1457 1459 1461 1462 1465 1467 1469 1471 1473 1475 1477 1479 1482 1484 1485 1486 1487 1487 1488 1488 1488 1488 1487 1486
1446 1446 1445 1444 1444 1444 1443 1444 1444 1444 1445 1446 1447 1448 1447 1445 1446 1447 1449 1451 1453 1455 1456 1458 1461 1463 1465 1467 1469 1472 1474 1476 1479 1480 1481 1482 1483 1483 1484 1484 1484 1483 1482
1441 1441 1440 1439 1438 1438 1438 1438 1439 1439 1440 1440 1441 1442 1443 1442 1443 1442 1443 1445 1447 1449 1451 1452 1454 1457 1459 1461 1463 1466 1468 1471 1473 1475 1476 1477 1478 1478 1479 1479 1479 1478 1477
1435 1435 1435 1434 1433 1432 1432 1433 1433 1433 1434 1434 1434 1435 1437 1438 1438 1437 1437 1439 1441 1443 1445 1447 1448 1450 1452 1455 1457 1460 1463 1465 1468 1469 1471 1471 1472 1473 1474 1474 1474 1473 1472
1429 1429 1428 1428 1427 1426 1426 1426 1426 1427 1427 1427 1428 1429 1430 1431 1431 1432 1432 1433 1434 1436 1439 1440 1442 1444 1446 1448 1451 1454 1457 1460 1462 1464 1465 1466 1467 1468 1468 1469 1468 1468 1468
1422 1422 1422 1421 1420 1419 1419 1419 1419 1419 1419 1420 1421 1422 1423 1424 1426 1427 1427 1428 1429 1430 1432 1434 1436 1438 1440 1443 1446 1448 1451 1454 1456 1458 1459 1461 1462 1463 1463 1463 1463 1463 1463
1416 1416 1415 1414 1413 1413 1412 1412 1412 1412 1412 1413 1414 1415 1416 1418 1420 1421 1422 1423 1424 1425 1426 1427 1430 1432 1434 1437 1440 1443 1445 1448 1450 1452 1454 1455 1456 1457 1457 1458 1458 1458 1458
1410 1409 1409 1408 1406 1406 1405 1404 1404 1404 1404 1405 1406 1407 1409 1411 1413 1415 1416 1418 1419 1419 1420 1421 1423 1426 1429 1431 1434 1436 1439 1442 1445 1446 1448 1450 1451 1452 1452 1452 1453 1453 1453
1404 1402 1401 1400 1399 1398 1397 1396 1396 1396 1397 1397 1398 1400 1401 1404 1406 1408 1410 1411 1413 1415 1414 1415 1417 1419 1423 1426 1428 1430 1433 1436 1439 1441 1442 1444 1445 1446 1447 1447 1448 1448 1448
1397 1395 1394 1393 1391 1390 1389 1388 1387 1388 1388 1389 1390 1392 1394 1397 1399 1401 1403 1405 1407 1409 1409 1410 1413 1415 1418 1420 1423 1425 1428 1430 1432 1435 1437 1438 1439 1441 1441 1442 1443 1444 1444
1390 1388 1387 1385 1383 1382 1381 1380 1379 1380 1381 1381 1383 1385 1387 1390 1392 1394 1396 1398 1400 1402 1404 1405 1407 1410 1412 1415 1418 1420 1422 1424 1427 1429 1431 1432 1434 1435 1436 1437 1439 1439 1439
1383 1381 1379 1377 1375 1374 1373 1372 1372 1372 1374 1375 1376 1378 1380 1383 1385 1387 1389 1391 1393 1396 1398 1400 1401 1405 1407 1410 1413 1415 1417 1419 1422 1424 1426 1427 1429 1430 1432 1433 1434 1434 1435
1376 1373 1371 1369 1367 1365 1364 1364 1364 1365 1366 1368 1369 1372 1374 1376 1378 1380 1383 1385 1387 1390 1392 1395 1397 1400 1403 1405 1408 1409 1411 1414 1416 1419 1421 1423 1424 1426 1427 1429 1430 1430 1431
1368 1365 1363 1361 1359 1357 1356 1356 1356 1357 1359 1361 1363 1365 1367 1370 1372 1375 1377 1379 1381 1384 1387 1390 1392 1395 1398 1400 1402 1404 1407 1409 1412 1414 1416 1418 1420 1422 1423 1425 1426 1426 1427
1361 1358 1355 1353 1350 1349 1348 1348 1349 1349 1351 1354 1356 1358 1361 1364 1366 1369 1371 1374 1376 1378 1381 1385 1387 1390 1392 1395 1397 1399 1402 1404 1406 1409 1412 1415 1417 1418 1420 1421 1422 1422 1423
1353 1350 1348 1345 1342 1340 1340 1341 1342 1343 1345 1347 1350 1352 1355 1358 1361 1363 1366 1368 1371 1374 1377 1380 1382 1384 1387 1389 1392 1395 1397 1400 1402 1405 1408 1410 1413 1414 1417 1418 1419 1419 1420
1347 1344 1340 1337 1335 1333 1333 1334 1335 1337 1339 1341 1344 1347 1349 1352 1355 1358 1360 1363 1366 1370 1373 1376 1378 1380 1383 1386 1388 1391 1394 1396 1399 1402 1405 1407 1409 1411 1413 1415 1416 1417 1418
1341 1337 1334 1331 1328 1327 1327 1327 1329 1331 1333 1336 1338 1341 1344 1347 1350 1354 1356 1359 1362 1365 1369 1372 1374 1377 1379 1381 1384 1387 1390 1392 1394 1398 1401 1403 1405 1408 1410 1412 1413 1414 1415
1335 1332 1328 1325 1323 1321 1321 1322 1324 1326 1328 1331 1333 1336 1340 1343 1346 1350 1352 1355 1357 1361 1364 1367 1370 1372 1375 1377 1381 1384 1386 1388 1391 1394 1397 1400 1402 1404 1407 1409 1411 1412 1412